Location: Kapla
(46.2483°N, 15.0094°E)
Time: 15:01:44
(UTC+00:00)

USA 234 - Pass Details

Date: 03 March 2021
Orbit: 1102 x 1105 km, 123.0° (Epoch: 18 April)

Event Time Altitude Azimuth Distance (km) Brightness Sun altitude
Exits shadow 17:52:37 - 61° (ENE) 3,046 5.1 -11.8°
Reaches altitude 10° 17:52:51 10° 62° (ENE) 2,965 5.0 -11.8°
Maximum altitude 17:59:00 42° 132° (SE) 1,525 3.7 -12.9°
Drops below altitude 10° 18:05:07 10° 201° (SSW) 2,953 5.7 -13.9°
Sets 18:07:45 0° 208° (SSW) 3,908 6.5 -14.4°
